GFSNGP_prec_pwat_000.txt.gz
Precipitable_Water
0.22 0.24 0.24 0.22 0.21 0.23 0.22 0.24 0.21 0.24 0.27 0.37 0.43 0.47 0.52 0.56 0.59 0.60 0.60 0.58 0.56 0.52 0.48 0.45 0.42 0.38 0.33 0.31 0.31 0.29 0.26 0.24 0.24 0.24 0.26 0.30 0.35 0.37 0.39 0.37 0.35 0.29 0.27 0.26
0.16 0.24 0.23 0.19 0.20 0.21 0.22 0.24 0.26 0.29 0.31 0.46 0.51 0.55 0.55 0.57 0.57 0.56 0.55 0.54 0.51 0.50 0.44 0.40 0.34 0.31 0.31 0.30 0.28 0.27 0.24 0.25 0.25 0.25 0.26 0.29 0.31 0.34 0.37 0.34 0.28 0.27 0.29 0.26
0.13 0.23 0.20 0.15 0.22 0.22 0.26 0.30 0.29 0.25 0.35 0.47 0.48 0.51 0.53 0.55 0.56 0.55 0.54 0.52 0.49 0.43 0.37 0.33 0.31 0.31 0.30 0.28 0.27 0.26 0.26 0.26 0.25 0.25 0.26 0.29 0.33 0.36 0.37 0.31 0.33 0.31 0.26 0.25
0.15 0.19 0.10 0.25 0.30 0.30 0.29 0.33 0.36 0.38 0.43 0.48 0.51 0.56 0.58 0.60 0.57 0.54 0.51 0.47 0.42 0.36 0.33 0.33 0.32 0.31 0.30 0.27 0.27 0.25 0.25 0.25 0.26 0.26 0.26 0.29 0.34 0.36 0.38 0.37 0.34 0.27 0.26 0.26
0.14 0.14 0.16 0.21 0.29 0.28 0.26 0.29 0.41 0.42 0.47 0.50 0.52 0.53 0.53 0.59 0.55 0.51 0.48 0.44 0.40 0.35 0.34 0.33 0.32 0.31 0.28 0.27 0.25 0.26 0.25 0.26 0.26 0.27 0.26 0.30 0.33 0.34 0.35 0.34 0.27 0.28 0.28 0.26
0.19 0.13 0.10 0.21 0.33 0.39 0.36 0.20 0.43 0.44 0.45 0.47 0.50 0.39 0.46 0.55 0.56 0.51 0.46 0.44 0.37 0.35 0.33 0.32 0.31 0.30 0.28 0.27 0.28 0.26 0.26 0.26 0.27 0.28 0.29 0.31 0.33 0.34 0.34 0.27 0.29 0.29 0.27 0.24
0.19 0.16 0.18 0.28 0.37 0.43 0.22 0.20 0.42 0.46 0.48 0.48 0.44 0.48 0.50 0.55 0.52 0.48 0.45 0.40 0.34 0.33 0.32 0.32 0.31 0.30 0.28 0.28 0.26 0.26 0.26 0.28 0.29 0.29 0.30 0.31 0.31 0.29 0.28 0.30 0.31 0.27 0.23 0.23
0.23 0.19 0.15 0.33 0.37 0.28 0.31 0.43 0.48 0.52 0.53 0.52 0.54 0.53 0.52 0.54 0.48 0.45 0.39 0.33 0.34 0.33 0.32 0.30 0.30 0.27 0.24 0.23 0.25 0.26 0.27 0.28 0.27 0.28 0.29 0.30 0.29 0.30 0.30 0.29 0.25 0.22 0.22 0.20
0.24 0.22 0.33 0.40 0.40 0.47 0.51 0.48 0.52 0.56 0.59 0.58 0.53 0.54 0.53 0.48 0.44 0.40 0.33 0.33 0.34 0.31 0.27 0.25 0.23 0.22 0.21 0.24 0.27 0.27 0.27 0.27 0.27 0.27 0.28 0.29 0.28 0.26 0.24 0.23 0.22 0.22 0.20 0.18
0.32 0.35 0.40 0.46 0.53 0.59 0.60 0.58 0.63 0.64 0.59 0.57 0.55 0.54 0.48 0.45 0.42 0.35 0.34 0.33 0.29 0.24 0.19 0.19 0.20 0.23 0.25 0.27 0.28 0.27 0.27 0.29 0.29 0.27 0.25 0.25 0.25 0.23 0.22 0.23 0.23 0.21 0.19 0.18
0.34 0.43 0.49 0.52 0.54 0.57 0.59 0.64 0.64 0.63 0.64 0.60 0.54 0.48 0.46 0.41 0.37 0.33 0.31 0.26 0.22 0.19 0.19 0.20 0.22 0.23 0.25 0.27 0.28 0.26 0.30 0.32 0.30 0.28 0.26 0.24 0.23 0.24 0.25 0.25 0.24 0.21 0.20 0.20
0.28 0.41 0.42 0.44 0.54 0.61 0.61 0.59 0.62 0.61 0.56 0.56 0.51 0.46 0.42 0.37 0.33 0.30 0.23 0.20 0.19 0.20 0.20 0.21 0.22 0.21 0.24 0.29 0.29 0.29 0.30 0.32 0.32 0.30 0.28 0.26 0.24 0.23 0.26 0.26 0.24 0.24 0.24 0.23
0.44 0.52 0.54 0.57 0.60 0.62 0.60 0.60 0.61 0.63 0.55 0.50 0.47 0.44 0.37 0.31 0.29 0.22 0.20 0.20 0.20 0.20 0.21 0.22 0.22 0.23 0.26 0.29 0.30 0.31 0.33 0.35 0.34 0.32 0.30 0.26 0.24 0.21 0.18 0.22 0.25 0.25 0.24 0.25
0.54 0.55 0.51 0.55 0.53 0.62 0.60 0.57 0.57 0.56 0.51 0.48 0.44 0.38 0.32 0.26 0.21 0.20 0.21 0.22 0.23 0.22 0.22 0.23 0.23 0.24 0.27 0.32 0.33 0.33 0.34 0.35 0.34 0.32 0.29 0.26 0.23 0.21 0.21 0.21 0.19 0.21 0.24 0.25
0.57 0.60 0.59 0.64 0.63 0.62 0.59 0.56 0.53 0.49 0.48 0.44 0.39 0.32 0.25 0.21 0.21 0.22 0.23 0.25 0.24 0.23 0.23 0.23 0.23 0.25 0.30 0.33 0.33 0.32 0.33 0.33 0.32 0.30 0.27 0.25 0.23 0.22 0.22 0.22 0.22 0.22 0.23 0.25
0.61 0.62 0.63 0.61 0.60 0.59 0.56 0.53 0.50 0.47 0.44 0.39 0.29 0.25 0.23 0.24 0.24 0.25 0.25 0.26 0.23 0.20 0.22 0.23 0.23 0.27 0.32 0.34 0.34 0.32 0.31 0.32 0.31 0.27 0.27 0.25 0.23 0.23 0.22 0.22 0.21 0.22 0.22 0.22
0.57 0.56 0.57 0.58 0.60 0.56 0.51 0.48 0.48 0.44 0.36 0.28 0.25 0.24 0.24 0.24 0.24 0.24 0.24 0.26 0.25 0.24 0.25 0.25 0.25 0.30 0.33 0.36 0.36 0.33 0.32 0.31 0.28 0.26 0.26 0.25 0.24 0.22 0.23 0.22 0.20 0.21 0.23 0.24
0.64 0.64 0.64 0.61 0.54 0.49 0.51 0.49 0.39 0.31 0.27 0.26 0.25 0.25 0.24 0.23 0.22 0.22 0.24 0.25 0.25 0.25 0.27 0.28 0.30 0.31 0.35 0.37 0.38 0.36 0.33 0.30 0.26 0.24 0.24 0.22 0.22 0.23 0.24 0.22 0.21 0.22 0.22 0.25
0.63 0.63 0.58 0.51 0.53 0.47 0.38 0.30 0.29 0.28 0.25 0.25 0.25 0.23 0.24 0.23 0.23 0.25 0.26 0.25 0.24 0.23 0.25 0.30 0.33 0.33 0.34 0.37 0.38 0.38 0.35 0.30 0.25 0.24 0.25 0.23 0.21 0.23 0.24 0.23 0.22 0.22 0.22 0.22
0.53 0.55 0.55 0.44 0.38 0.33 0.30 0.29 0.27 0.25 0.24 0.25 0.24 0.22 0.21 0.22 0.26 0.26 0.27 0.25 0.27 0.27 0.30 0.31 0.33 0.32 0.34 0.35 0.36 0.38 0.35 0.31 0.26 0.25 0.25 0.23 0.21 0.22 0.23 0.23 0.23 0.21 0.22 0.23
0.51 0.43 0.40 0.36 0.33 0.31 0.29 0.28 0.24 0.22 0.23 0.24 0.22 0.21 0.22 0.24 0.27 0.29 0.27 0.25 0.29 0.32 0.32 0.32 0.32 0.32 0.34 0.35 0.36 0.36 0.36 0.31 0.29 0.28 0.27 0.26 0.24 0.22 0.22 0.23 0.22 0.22 0.22 0.22
0.42 0.39 0.37 0.34 0.30 0.28 0.26 0.25 0.24 0.23 0.24 0.24 0.24 0.25 0.25 0.26 0.28 0.29 0.32 0.30 0.32 0.33 0.33 0.32 0.32 0.32 0.33 0.35 0.35 0.36 0.35 0.33 0.32 0.31 0.31 0.30 0.28 0.24 0.22 0.22 0.22 0.24 0.22 0.22
0.39 0.37 0.34 0.31 0.27 0.25 0.25 0.25 0.25 0.25 0.25 0.27 0.27 0.28 0.29 0.30 0.31 0.29 0.25 0.32 0.34 0.33 0.33 0.33 0.33 0.32 0.33 0.34 0.34 0.35 0.35 0.33 0.32 0.32 0.32 0.32 0.31 0.29 0.24 0.22 0.22 0.22 0.22 0.22
0.34 0.30 0.27 0.28 0.28 0.26 0.23 0.24 0.26 0.28 0.28 0.29 0.30 0.32 0.31 0.31 0.32 0.36 0.35 0.33 0.33 0.33 0.32 0.32 0.33 0.33 0.33 0.34 0.34 0.34 0.35 0.35 0.34 0.35 0.34 0.34 0.32 0.32 0.31 0.28 0.24 0.23 0.23 0.24
0.27 0.27 0.27 0.26 0.26 0.25 0.26 0.27 0.27 0.28 0.28 0.29 0.31 0.35 0.36 0.37 0.33 0.33 0.33 0.32 0.33 0.33 0.33 0.33 0.33 0.33 0.34 0.34 0.34 0.34 0.34 0.34 0.35 0.35 0.34 0.34 0.34 0.33 0.33 0.31 0.30 0.26 0.25 0.26
0.27 0.27 0.27 0.29 0.27 0.27 0.27 0.28 0.26 0.28 0.29 0.28 0.30 0.32 0.32 0.34 0.34 0.33 0.33 0.33 0.34 0.33 0.32 0.32 0.32 0.32 0.32 0.32 0.31 0.31 0.32 0.32 0.33 0.34 0.34 0.34 0.34 0.34 0.33 0.33 0.32 0.28 0.26 0.26
0.26 0.27 0.28 0.28 0.29 0.29 0.30 0.30 0.29 0.29 0.32 0.31 0.29 0.32 0.33 0.32 0.32 0.32 0.33 0.33 0.33 0.33 0.32 0.31 0.31 0.31 0.29 0.29 0.28 0.28 0.28 0.29 0.30 0.31 0.33 0.33 0.34 0.34 0.34 0.34 0.33 0.31 0.28 0.27

GFSNGP_prec_pwat_006.txt.gz
Precipitable_Water
0.23 0.22 0.21 0.18 0.17 0.21 0.18 0.19 0.15 0.16 0.17 0.22 0.30 0.35 0.41 0.48 0.51 0.54 0.56 0.57 0.57 0.54 0.52 0.57 0.56 0.47 0.43 0.41 0.39 0.37 0.34 0.32 0.31 0.31 0.28 0.26 0.25 0.26 0.28 0.31 0.32 0.37 0.32 0.25
0.19 0.23 0.21 0.17 0.19 0.19 0.19 0.20 0.20 0.21 0.18 0.30 0.35 0.41 0.43 0.46 0.49 0.52 0.55 0.55 0.55 0.55 0.58 0.51 0.44 0.41 0.40 0.38 0.35 0.35 0.33 0.31 0.31 0.29 0.27 0.25 0.26 0.27 0.30 0.34 0.33 0.30 0.25 0.25
0.13 0.20 0.18 0.12 0.13 0.16 0.17 0.20 0.19 0.15 0.20 0.31 0.31 0.35 0.40 0.45 0.49 0.52 0.54 0.55 0.55 0.52 0.48 0.44 0.41 0.39 0.36 0.34 0.35 0.34 0.32 0.30 0.29 0.28 0.25 0.25 0.27 0.28 0.31 0.33 0.34 0.33 0.31 0.31
0.14 0.17 0.10 0.14 0.23 0.23 0.19 0.21 0.24 0.25 0.28 0.32 0.35 0.41 0.47 0.50 0.50 0.52 0.54 0.53 0.51 0.48 0.48 0.44 0.39 0.36 0.36 0.35 0.34 0.32 0.29 0.28 0.27 0.26 0.26 0.25 0.26 0.28 0.31 0.33 0.33 0.33 0.32 0.29
0.13 0.13 0.15 0.16 0.21 0.22 0.20 0.18 0.27 0.28 0.32 0.36 0.41 0.43 0.40 0.49 0.53 0.55 0.56 0.52 0.51 0.51 0.47 0.39 0.35 0.36 0.35 0.34 0.32 0.28 0.25 0.24 0.25 0.27 0.26 0.25 0.26 0.28 0.29 0.31 0.32 0.30 0.29 0.29
0.17 0.13 0.10 0.15 0.23 0.32 0.30 0.16 0.28 0.32 0.34 0.35 0.38 0.28 0.31 0.48 0.54 0.57 0.56 0.53 0.50 0.47 0.43 0.38 0.37 0.37 0.35 0.31 0.25 0.23 0.23 0.24 0.25 0.27 0.27 0.26 0.27 0.28 0.28 0.28 0.27 0.28 0.27 0.24
0.16 0.14 0.15 0.20 0.29 0.33 0.16 0.15 0.29 0.33 0.34 0.36 0.33 0.38 0.46 0.52 0.56 0.58 0.56 0.53 0.49 0.46 0.42 0.39 0.37 0.35 0.29 0.23 0.22 0.25 0.25 0.24 0.25 0.28 0.28 0.28 0.28 0.28 0.27 0.26 0.26 0.25 0.23 0.22
0.19 0.15 0.12 0.26 0.31 0.23 0.27 0.33 0.34 0.38 0.41 0.42 0.46 0.50 0.51 0.55 0.56 0.56 0.54 0.49 0.48 0.47 0.41 0.37 0.34 0.29 0.22 0.23 0.25 0.24 0.23 0.23 0.25 0.27 0.29 0.29 0.28 0.26 0.24 0.24 0.22 0.21 0.21 0.22
0.22 0.20 0.29 0.34 0.33 0.39 0.41 0.39 0.41 0.43 0.49 0.53 0.53 0.53 0.57 0.56 0.53 0.55 0.49 0.48 0.50 0.44 0.35 0.31 0.29 0.25 0.24 0.24 0.24 0.23 0.23 0.24 0.24 0.27 0.29 0.30 0.27 0.25 0.24 0.24 0.22 0.22 0.21 0.20
0.27 0.30 0.32 0.37 0.41 0.43 0.46 0.46 0.50 0.55 0.58 0.59 0.56 0.60 0.60 0.56 0.52 0.50 0.49 0.53 0.44 0.35 0.31 0.28 0.26 0.26 0.26 0.25 0.24 0.23 0.23 0.24 0.26 0.27 0.29 0.30 0.28 0.27 0.26 0.25 0.24 0.22 0.20 0.19
0.31 0.33 0.36 0.39 0.42 0.46 0.49 0.55 0.57 0.59 0.60 0.60 0.62 0.61 0.59 0.54 0.54 0.52 0.55 0.43 0.36 0.33 0.29 0.25 0.26 0.25 0.26 0.25 0.25 0.23 0.25 0.26 0.27 0.29 0.29 0.30 0.29 0.28 0.28 0.29 0.24 0.20 0.20 0.20
0.28 0.36 0.38 0.39 0.46 0.51 0.51 0.52 0.57 0.57 0.59 0.63 0.63 0.58 0.56 0.57 0.55 0.54 0.41 0.37 0.34 0.31 0.26 0.25 0.25 0.24 0.25 0.25 0.26 0.25 0.24 0.25 0.28 0.29 0.31 0.32 0.29 0.30 0.32 0.28 0.24 0.24 0.23 0.23
0.43 0.51 0.53 0.56 0.59 0.61 0.58 0.59 0.62 0.63 0.63 0.61 0.60 0.59 0.59 0.58 0.53 0.42 0.39 0.35 0.30 0.27 0.26 0.25 0.24 0.23 0.24 0.27 0.27 0.25 0.25 0.27 0.28 0.29 0.32 0.32 0.31 0.30 0.25 0.25 0.26 0.25 0.24 0.24
0.62 0.62 0.56 0.60 0.57 0.64 0.64 0.64 0.64 0.63 0.62 0.61 0.58 0.60 0.62 0.51 0.42 0.38 0.34 0.30 0.28 0.27 0.26 0.25 0.23 0.23 0.25 0.27 0.27 0.27 0.28 0.29 0.30 0.31 0.32 0.32 0.32 0.29 0.27 0.24 0.22 0.22 0.23 0.24
0.62 0.65 0.63 0.65 0.65 0.62 0.63 0.63 0.61 0.58 0.60 0.62 0.65 0.61 0.51 0.39 0.36 0.33 0.31 0.30 0.28 0.26 0.25 0.24 0.23 0.23 0.27 0.27 0.27 0.28 0.29 0.30 0.31 0.32 0.31 0.31 0.30 0.29 0.28 0.26 0.23 0.22 0.22 0.23
0.63 0.66 0.66 0.62 0.60 0.60 0.60 0.60 0.60 0.60 0.60 0.61 0.58 0.46 0.40 0.38 0.33 0.30 0.30 0.27 0.23 0.22 0.23 0.23 0.24 0.26 0.28 0.27 0.28 0.29 0.31 0.32 0.32 0.31 0.31 0.30 0.27 0.26 0.26 0.25 0.23 0.22 0.22 0.21
0.61 0.57 0.58 0.58 0.58 0.58 0.58 0.58 0.59 0.59 0.56 0.51 0.45 0.41 0.36 0.31 0.30 0.27 0.25 0.25 0.25 0.25 0.25 0.26 0.26 0.29 0.30 0.31 0.30 0.29 0.30 0.32 0.32 0.32 0.32 0.31 0.28 0.25 0.26 0.23 0.21 0.22 0.22 0.22
0.65 0.64 0.63 0.61 0.59 0.57 0.57 0.57 0.54 0.52 0.49 0.44 0.38 0.33 0.30 0.28 0.25 0.24 0.23 0.24 0.25 0.26 0.27 0.29 0.29 0.30 0.31 0.30 0.30 0.29 0.30 0.31 0.30 0.31 0.33 0.32 0.30 0.26 0.26 0.25 0.22 0.21 0.22 0.22
0.64 0.62 0.61 0.59 0.58 0.55 0.54 0.50 0.46 0.43 0.38 0.34 0.31 0.28 0.28 0.27 0.25 0.24 0.24 0.23 0.23 0.24 0.27 0.30 0.31 0.31 0.30 0.31 0.31 0.30 0.29 0.29 0.29 0.30 0.32 0.33 0.32 0.26 0.25 0.27 0.25 0.22 0.23 0.23
0.58 0.56 0.54 0.48 0.44 0.43 0.42 0.42 0.38 0.34 0.34 0.32 0.30 0.28 0.25 0.25 0.24 0.23 0.23 0.23 0.26 0.28 0.31 0.32 0.33 0.33 0.33 0.33 0.33 0.32 0.31 0.30 0.29 0.29 0.30 0.31 0.31 0.28 0.27 0.27 0.28 0.27 0.24 0.23
0.47 0.44 0.42 0.40 0.38 0.39 0.38 0.37 0.35 0.32 0.31 0.29 0.27 0.26 0.25 0.25 0.26 0.27 0.25 0.23 0.27 0.33 0.33 0.33 0.33 0.31 0.32 0.32 0.32 0.32 0.31 0.30 0.30 0.29 0.30 0.31 0.31 0.31 0.29 0.30 0.30 0.30 0.29 0.27
0.44 0.44 0.43 0.40 0.36 0.35 0.35 0.34 0.33 0.30 0.29 0.28 0.27 0.26 0.25 0.24 0.25 0.26 0.28 0.26 0.30 0.34 0.33 0.32 0.32 0.31 0.31 0.31 0.32 0.31 0.31 0.31 0.31 0.31 0.31 0.32 0.32 0.31 0.31 0.32 0.31 0.32 0.32 0.31
0.42 0.38 0.36 0.34 0.32 0.31 0.31 0.30 0.29 0.28 0.26 0.26 0.25 0.25 0.25 0.26 0.27 0.25 0.23 0.29 0.32 0.33 0.32 0.32 0.31 0.31 0.31 0.30 0.32 0.32 0.31 0.30 0.31 0.31 0.31 0.31 0.31 0.31 0.31 0.31 0.32 0.32 0.32 0.32
0.35 0.33 0.32 0.32 0.30 0.27 0.23 0.25 0.26 0.27 0.27 0.27 0.28 0.29 0.29 0.26 0.26 0.31 0.32 0.33 0.33 0.33 0.32 0.32 0.32 0.31 0.30 0.30 0.31 0.32 0.32 0.31 0.30 0.29 0.28 0.28 0.28 0.28 0.28 0.28 0.29 0.31 0.31 0.32
0.31 0.29 0.28 0.26 0.25 0.25 0.26 0.27 0.27 0.27 0.26 0.26 0.26 0.27 0.29 0.31 0.29 0.28 0.31 0.31 0.30 0.31 0.31 0.31 0.31 0.31 0.30 0.30 0.29 0.28 0.28 0.28 0.27 0.26 0.24 0.24 0.24 0.23 0.23 0.24 0.25 0.26 0.28 0.30
0.28 0.26 0.27 0.28 0.27 0.27 0.26 0.25 0.22 0.21 0.21 0.20 0.22 0.24 0.24 0.26 0.27 0.28 0.28 0.28 0.29 0.29 0.29 0.30 0.29 0.28 0.28 0.27 0.27 0.27 0.26 0.25 0.23 0.22 0.20 0.19 0.19 0.19 0.19 0.21 0.23 0.24 0.24 0.27
0.27 0.27 0.26 0.26 0.26 0.24 0.20 0.18 0.17 0.18 0.20 0.21 0.21 0.22 0.23 0.24 0.25 0.26 0.28 0.29 0.29 0.28 0.29 0.28 0.27 0.26 0.25 0.25 0.25 0.25 0.25 0.24 0.22 0.21 0.20 0.18 0.17 0.17 0.16 0.17 0.18 0.20 0.23 0.25

GFSNGP_prec_pwat_009.txt.gz
Precipitable_Water
0.26 0.25 0.23 0.19 0.20 0.20 0.16 0.16 0.12 0.12 0.14 0.17 0.23 0.28 0.34 0.41 0.45 0.47 0.50 0.53 0.56 0.58 0.57 0.53 0.62 0.59 0.47 0.44 0.41 0.39 0.36 0.35 0.34 0.35 0.34 0.32 0.28 0.28 0.28 0.30 0.33 0.32 0.33 0.29
0.23 0.25 0.22 0.17 0.18 0.18 0.19 0.19 0.18 0.18 0.15 0.24 0.29 0.33 0.35 0.38 0.42 0.44 0.49 0.53 0.56 0.56 0.54 0.60 0.48 0.46 0.45 0.42 0.39 0.37 0.36 0.35 0.34 0.33 0.32 0.28 0.28 0.27 0.28 0.30 0.33 0.33 0.32 0.31
0.14 0.21 0.20 0.14 0.14 0.16 0.17 0.19 0.19 0.14 0.16 0.25 0.25 0.30 0.33 0.38 0.42 0.45 0.49 0.53 0.54 0.54 0.53 0.47 0.46 0.47 0.43 0.40 0.37 0.36 0.36 0.33 0.30 0.31 0.28 0.27 0.27 0.26 0.27 0.29 0.33 0.34 0.32 0.33
0.14 0.17 0.09 0.14 0.22 0.21 0.18 0.20 0.22 0.22 0.23 0.27 0.30 0.35 0.38 0.43 0.43 0.44 0.49 0.52 0.53 0.53 0.51 0.50 0.49 0.46 0.41 0.37 0.36 0.36 0.33 0.29 0.28 0.27 0.26 0.27 0.27 0.26 0.28 0.29 0.29 0.32 0.31 0.31
0.12 0.12 0.14 0.15 0.17 0.19 0.19 0.17 0.24 0.23 0.27 0.32 0.37 0.39 0.36 0.42 0.45 0.48 0.53 0.56 0.55 0.54 0.52 0.51 0.48 0.43 0.38 0.37 0.38 0.34 0.26 0.25 0.26 0.26 0.25 0.26 0.26 0.26 0.27 0.27 0.28 0.28 0.28 0.27
0.18 0.13 0.10 0.14 0.20 0.31 0.29 0.15 0.25 0.27 0.30 0.33 0.38 0.25 0.29 0.42 0.49 0.53 0.58 0.58 0.56 0.54 0.51 0.50 0.45 0.41 0.39 0.37 0.32 0.24 0.25 0.26 0.26 0.25 0.25 0.25 0.27 0.27 0.27 0.28 0.26 0.26 0.26 0.25
0.17 0.15 0.16 0.21 0.28 0.33 0.15 0.16 0.28 0.31 0.33 0.35 0.32 0.36 0.42 0.49 0.52 0.59 0.60 0.57 0.54 0.54 0.52 0.49 0.46 0.42 0.36 0.31 0.25 0.27 0.27 0.25 0.23 0.24 0.25 0.26 0.27 0.28 0.27 0.26 0.24 0.24 0.24 0.24
0.19 0.16 0.13 0.27 0.31 0.23 0.28 0.35 0.35 0.38 0.39 0.39 0.43 0.46 0.51 0.54 0.56 0.58 0.56 0.55 0.58 0.52 0.49 0.49 0.43 0.38 0.32 0.27 0.28 0.27 0.24 0.23 0.23 0.24 0.24 0.26 0.27 0.28 0.26 0.25 0.24 0.25 0.24 0.23
0.22 0.20 0.28 0.33 0.34 0.39 0.41 0.38 0.40 0.43 0.46 0.48 0.51 0.54 0.57 0.56 0.56 0.56 0.56 0.56 0.53 0.52 0.49 0.41 0.39 0.35 0.28 0.27 0.28 0.24 0.23 0.23 0.24 0.25 0.26 0.27 0.28 0.28 0.25 0.26 0.25 0.25 0.24 0.22
0.26 0.28 0.31 0.35 0.39 0.40 0.43 0.43 0.48 0.51 0.52 0.55 0.54 0.58 0.59 0.57 0.56 0.56 0.54 0.53 0.58 0.49 0.40 0.37 0.35 0.31 0.28 0.28 0.26 0.24 0.23 0.24 0.26 0.25 0.26 0.28 0.29 0.28 0.26 0.26 0.26 0.26 0.22 0.20
0.29 0.31 0.35 0.37 0.41 0.44 0.47 0.50 0.52 0.57 0.58 0.58 0.59 0.58 0.58 0.56 0.55 0.55 0.56 0.63 0.51 0.42 0.38 0.33 0.31 0.29 0.28 0.26 0.25 0.24 0.25 0.24 0.24 0.25 0.27 0.28 0.30 0.30 0.28 0.29 0.29 0.25 0.22 0.21
0.26 0.35 0.38 0.41 0.49 0.56 0.57 0.58 0.61 0.60 0.59 0.61 0.61 0.59 0.59 0.57 0.57 0.62 0.61 0.50 0.42 0.39 0.34 0.30 0.29 0.27 0.26 0.25 0.26 0.26 0.24 0.23 0.24 0.25 0.26 0.28 0.30 0.30 0.31 0.32 0.30 0.26 0.25 0.23
0.41 0.51 0.53 0.57 0.63 0.66 0.63 0.64 0.64 0.64 0.62 0.59 0.60 0.61 0.59 0.60 0.66 0.62 0.48 0.41 0.39 0.33 0.31 0.29 0.27 0.26 0.25 0.26 0.27 0.26 0.24 0.25 0.26 0.26 0.27 0.28 0.30 0.30 0.28 0.31 0.30 0.28 0.27 0.25
0.58 0.59 0.55 0.61 0.59 0.67 0.66 0.64 0.64 0.63 0.63 0.62 0.61 0.62 0.64 0.62 0.56 0.46 0.43 0.38 0.34 0.32 0.30 0.28 0.27 0.25 0.26 0.27 0.27 0.27 0.26 0.27 0.27 0.27 0.29 0.29 0.30 0.31 0.32 0.29 0.26 0.27 0.27 0.25
0.58 0.62 0.61 0.63 0.64 0.64 0.65 0.65 0.63 0.61 0.60 0.60 0.63 0.60 0.58 0.52 0.47 0.41 0.37 0.35 0.33 0.30 0.28 0.27 0.25 0.24 0.28 0.29 0.28 0.27 0.27 0.27 0.29 0.29 0.30 0.30 0.29 0.30 0.31 0.28 0.27 0.27 0.25 0.25
0.59 0.62 0.63 0.63 0.61 0.62 0.62 0.61 0.59 0.58 0.58 0.57 0.55 0.54 0.51 0.45 0.39 0.36 0.35 0.34 0.29 0.25 0.26 0.25 0.24 0.27 0.29 0.29 0.29 0.29 0.29 0.29 0.29 0.30 0.29 0.30 0.30 0.30 0.29 0.26 0.26 0.25 0.22 0.22
0.57 0.57 0.59 0.59 0.59 0.58 0.59 0.60 0.57 0.55 0.55 0.53 0.51 0.49 0.42 0.36 0.34 0.32 0.32 0.31 0.28 0.26 0.27 0.26 0.27 0.30 0.31 0.30 0.30 0.29 0.28 0.29 0.29 0.30 0.29 0.29 0.30 0.30 0.30 0.27 0.25 0.26 0.23 0.24
0.64 0.63 0.63 0.61 0.58 0.56 0.55 0.55 0.53 0.51 0.49 0.47 0.41 0.37 0.35 0.32 0.30 0.29 0.28 0.28 0.27 0.25 0.27 0.30 0.31 0.31 0.31 0.32 0.31 0.29 0.28 0.28 0.29 0.28 0.29 0.29 0.29 0.31 0.32 0.30 0.25 0.27 0.27 0.25
0.62 0.59 0.58 0.56 0.54 0.51 0.50 0.48 0.47 0.44 0.41 0.38 0.35 0.32 0.30 0.29 0.27 0.26 0.26 0.24 0.23 0.22 0.25 0.31 0.32 0.32 0.32 0.34 0.33 0.32 0.31 0.30 0.29 0.29 0.29 0.29 0.30 0.30 0.31 0.31 0.28 0.27 0.29 0.29
0.52 0.50 0.47 0.45 0.45 0.44 0.41 0.41 0.38 0.35 0.34 0.31 0.28 0.26 0.24 0.25 0.26 0.26 0.27 0.25 0.26 0.28 0.31 0.32 0.33 0.33 0.33 0.33 0.33 0.32 0.30 0.30 0.29 0.28 0.29 0.29 0.30 0.30 0.31 0.31 0.30 0.29 0.29 0.30
0.43 0.43 0.41 0.40 0.37 0.36 0.36 0.35 0.32 0.29 0.28 0.28 0.26 0.25 0.26 0.26 0.27 0.27 0.25 0.24 0.26 0.30 0.31 0.32 0.32 0.32 0.33 0.32 0.32 0.31 0.30 0.30 0.29 0.29 0.29 0.29 0.30 0.30 0.31 0.31 0.31 0.31 0.30 0.31
0.42 0.40 0.38 0.36 0.34 0.33 0.32 0.31 0.30 0.29 0.28 0.28 0.27 0.26 0.26 0.25 0.26 0.26 0.27 0.25 0.27 0.30 0.31 0.32 0.32 0.32 0.31 0.30 0.30 0.29 0.28 0.29 0.30 0.30 0.30 0.30 0.30 0.30 0.30 0.30 0.30 0.30 0.31 0.31
0.38 0.36 0.36 0.34 0.32 0.31 0.30 0.29 0.28 0.28 0.27 0.27 0.26 0.26 0.25 0.26 0.26 0.24 0.21 0.28 0.30 0.31 0.32 0.33 0.33 0.32 0.32 0.31 0.29 0.28 0.28 0.29 0.31 0.31 0.30 0.29 0.30 0.29 0.28 0.28 0.28 0.28 0.28 0.28
0.37 0.35 0.33 0.32 0.29 0.26 0.23 0.25 0.26 0.26 0.25 0.24 0.23 0.22 0.21 0.19 0.20 0.24 0.26 0.27 0.27 0.29 0.29 0.30 0.31 0.31 0.30 0.29 0.28 0.27 0.27 0.28 0.28 0.29 0.29 0.28 0.27 0.27 0.26 0.25 0.24 0.23 0.23 0.24
0.33 0.31 0.29 0.26 0.25 0.24 0.25 0.23 0.22 0.20 0.18 0.18 0.19 0.20 0.22 0.24 0.22 0.21 0.23 0.24 0.25 0.27 0.28 0.30 0.29 0.29 0.29 0.28 0.26 0.25 0.25 0.25 0.25 0.26 0.25 0.24 0.23 0.22 0.21 0.20 0.19 0.19 0.20 0.22
0.30 0.27 0.27 0.27 0.26 0.24 0.22 0.21 0.18 0.18 0.18 0.17 0.18 0.19 0.19 0.20 0.21 0.21 0.22 0.22 0.24 0.26 0.28 0.27 0.26 0.26 0.27 0.26 0.24 0.23 0.23 0.23 0.24 0.24 0.23 0.23 0.22 0.21 0.19 0.18 0.18 0.17 0.17 0.18
0.27 0.26 0.25 0.25 0.24 0.23 0.21 0.19 0.17 0.16 0.17 0.16 0.14 0.15 0.16 0.17 0.17 0.17 0.18 0.20 0.23 0.24 0.24 0.24 0.24 0.24 0.24 0.23 0.23 0.22 0.22 0.22 0.22 0.22 0.22 0.21 0.21 0.20 0.19 0.18 0.17 0.17 0.17 0.18

GFSNGP_prec_pwat_012.txt.gz
Precipitable_Water
0.32 0.31 0.26 0.23 0.21 0.21 0.18 0.18 0.13 0.13 0.13 0.15 0.20 0.23 0.28 0.34 0.39 0.44 0.48 0.50 0.53 0.54 0.56 0.56 0.55 0.57 0.65 0.55 0.45 0.44 0.42 0.40 0.38 0.38 0.38 0.38 0.37 0.33 0.31 0.30 0.32 0.35 0.31 0.31
0.24 0.28 0.26 0.21 0.21 0.21 0.20 0.20 0.17 0.16 0.15 0.24 0.26 0.28 0.29 0.32 0.37 0.39 0.43 0.48 0.52 0.55 0.55 0.54 0.53 0.59 0.56 0.48 0.45 0.45 0.42 0.39 0.38 0.37 0.36 0.36 0.33 0.30 0.29 0.29 0.32 0.34 0.35 0.35
0.18 0.25 0.25 0.18 0.18 0.19 0.19 0.20 0.20 0.16 0.21 0.28 0.25 0.27 0.29 0.34 0.37 0.39 0.43 0.47 0.49 0.52 0.55 0.54 0.54 0.53 0.52 0.48 0.46 0.43 0.40 0.38 0.37 0.34 0.33 0.31 0.29 0.28 0.28 0.29 0.32 0.31 0.34 0.36
0.17 0.18 0.11 0.18 0.22 0.21 0.21 0.21 0.23 0.22 0.25 0.28 0.29 0.34 0.37 0.40 0.40 0.41 0.42 0.45 0.50 0.55 0.57 0.56 0.52 0.55 0.51 0.47 0.43 0.40 0.39 0.39 0.32 0.31 0.29 0.27 0.27 0.28 0.29 0.30 0.30 0.30 0.31 0.32
0.16 0.15 0.15 0.13 0.17 0.17 0.18 0.16 0.23 0.23 0.25 0.30 0.34 0.38 0.36 0.42 0.42 0.43 0.47 0.53 0.57 0.60 0.59 0.55 0.54 0.53 0.49 0.47 0.42 0.41 0.41 0.30 0.29 0.29 0.25 0.24 0.25 0.27 0.30 0.29 0.29 0.29 0.30 0.29
0.20 0.15 0.12 0.18 0.22 0.31 0.29 0.17 0.26 0.26 0.28 0.30 0.35 0.27 0.31 0.42 0.45 0.48 0.54 0.58 0.59 0.59 0.59 0.55 0.52 0.54 0.52 0.44 0.42 0.39 0.32 0.30 0.29 0.25 0.23 0.24 0.25 0.27 0.29 0.29 0.28 0.27 0.26 0.26
0.21 0.18 0.19 0.24 0.26 0.33 0.17 0.20 0.30 0.32 0.33 0.35 0.33 0.38 0.44 0.47 0.51 0.57 0.59 0.61 0.61 0.59 0.54 0.53 0.58 0.56 0.46 0.43 0.38 0.34 0.32 0.29 0.26 0.25 0.25 0.25 0.25 0.28 0.29 0.29 0.28 0.27 0.26 0.27
0.20 0.17 0.15 0.27 0.31 0.24 0.31 0.35 0.35 0.37 0.41 0.42 0.44 0.48 0.49 0.53 0.57 0.61 0.61 0.59 0.59 0.55 0.54 0.61 0.60 0.50 0.43 0.38 0.36 0.32 0.30 0.26 0.25 0.26 0.26 0.26 0.26 0.28 0.29 0.28 0.27 0.27 0.28 0.28
0.23 0.23 0.29 0.33 0.34 0.39 0.40 0.37 0.39 0.42 0.46 0.48 0.49 0.51 0.53 0.55 0.58 0.61 0.59 0.57 0.57 0.56 0.61 0.63 0.51 0.44 0.38 0.36 0.33 0.29 0.27 0.26 0.27 0.28 0.28 0.27 0.26 0.28 0.29 0.28 0.27 0.27 0.27 0.26
0.26 0.29 0.30 0.34 0.38 0.40 0.42 0.42 0.46 0.48 0.49 0.52 0.52 0.57 0.58 0.57 0.57 0.57 0.55 0.55 0.56 0.62 0.59 0.50 0.49 0.41 0.36 0.34 0.31 0.28 0.27 0.27 0.28 0.26 0.25 0.26 0.28 0.29 0.28 0.28 0.28 0.27 0.27 0.26
0.28 0.30 0.34 0.36 0.40 0.44 0.48 0.54 0.57 0.61 0.63 0.63 0.62 0.61 0.61 0.56 0.54 0.54 0.55 0.60 0.63 0.59 0.52 0.44 0.40 0.37 0.36 0.33 0.31 0.28 0.28 0.27 0.26 0.26 0.24 0.25 0.27 0.29 0.30 0.30 0.29 0.29 0.28 0.26
0.26 0.34 0.36 0.40 0.50 0.57 0.59 0.61 0.65 0.65 0.64 0.64 0.65 0.63 0.61 0.56 0.55 0.60 0.62 0.62 0.58 0.52 0.46 0.38 0.37 0.35 0.34 0.32 0.30 0.28 0.26 0.27 0.27 0.26 0.26 0.26 0.27 0.28 0.32 0.31 0.31 0.31 0.29 0.27
0.36 0.45 0.49 0.55 0.61 0.66 0.64 0.64 0.64 0.63 0.63 0.59 0.60 0.60 0.60 0.61 0.62 0.62 0.60 0.56 0.50 0.44 0.41 0.38 0.35 0.32 0.31 0.30 0.30 0.29 0.27 0.28 0.28 0.27 0.28 0.27 0.27 0.26 0.26 0.31 0.33 0.32 0.30 0.29
0.55 0.55 0.51 0.56 0.56 0.61 0.62 0.63 0.65 0.66 0.67 0.66 0.65 0.65 0.62 0.60 0.59 0.57 0.54 0.50 0.45 0.40 0.38 0.35 0.32 0.30 0.30 0.31 0.30 0.29 0.29 0.29 0.29 0.29 0.29 0.28 0.27 0.28 0.28 0.28 0.29 0.31 0.32 0.30
0.55 0.60 0.57 0.58 0.59 0.61 0.64 0.65 0.63 0.62 0.62 0.61 0.62 0.59 0.56 0.53 0.50 0.48 0.46 0.44 0.41 0.38 0.34 0.32 0.29 0.29 0.31 0.31 0.29 0.29 0.30 0.30 0.31 0.30 0.30 0.30 0.30 0.29 0.29 0.29 0.29 0.29 0.29 0.30
0.56 0.58 0.60 0.60 0.61 0.63 0.63 0.62 0.59 0.58 0.57 0.55 0.53 0.51 0.50 0.48 0.45 0.42 0.41 0.40 0.35 0.30 0.30 0.29 0.28 0.29 0.30 0.31 0.31 0.31 0.31 0.32 0.30 0.29 0.28 0.28 0.30 0.29 0.29 0.29 0.30 0.30 0.26 0.27
0.56 0.55 0.58 0.57 0.58 0.59 0.58 0.58 0.55 0.51 0.51 0.50 0.49 0.49 0.47 0.43 0.37 0.34 0.33 0.33 0.30 0.28 0.28 0.27 0.26 0.29 0.31 0.32 0.31 0.31 0.31 0.31 0.30 0.28 0.28 0.28 0.29 0.28 0.29 0.29 0.30 0.30 0.29 0.29
0.62 0.62 0.61 0.58 0.55 0.53 0.51 0.50 0.50 0.49 0.47 0.45 0.40 0.35 0.31 0.29 0.27 0.27 0.28 0.28 0.26 0.25 0.25 0.26 0.27 0.29 0.30 0.32 0.33 0.33 0.33 0.32 0.31 0.30 0.29 0.29 0.28 0.29 0.29 0.30 0.31 0.31 0.32 0.30
0.57 0.54 0.52 0.51 0.50 0.49 0.47 0.43 0.39 0.37 0.35 0.33 0.30 0.28 0.28 0.28 0.27 0.26 0.26 0.25 0.23 0.23 0.25 0.29 0.29 0.30 0.31 0.34 0.34 0.35 0.34 0.33 0.32 0.31 0.30 0.29 0.28 0.29 0.29 0.30 0.31 0.33 0.33 0.32
0.49 0.47 0.44 0.42 0.41 0.38 0.35 0.36 0.35 0.33 0.32 0.30 0.28 0.28 0.26 0.27 0.27 0.26 0.26 0.24 0.25 0.26 0.29 0.29 0.30 0.30 0.32 0.34 0.34 0.33 0.32 0.31 0.29 0.28 0.28 0.29 0.28 0.28 0.30 0.30 0.31 0.32 0.33 0.33
0.41 0.39 0.38 0.36 0.34 0.35 0.34 0.33 0.31 0.29 0.29 0.29 0.27 0.25 0.24 0.25 0.26 0.26 0.24 0.23 0.26 0.30 0.30 0.30 0.31 0.31 0.33 0.32 0.32 0.31 0.30 0.29 0.27 0.26 0.27 0.28 0.28 0.29 0.30 0.30 0.31 0.32 0.32 0.33
0.41 0.38 0.34 0.34 0.34 0.32 0.32 0.31 0.29 0.28 0.27 0.26 0.26 0.25 0.24 0.22 0.22 0.22 0.24 0.24 0.27 0.29 0.29 0.30 0.31 0.33 0.34 0.33 0.32 0.31 0.31 0.29 0.27 0.27 0.29 0.30 0.30 0.29 0.29 0.30 0.30 0.31 0.31 0.31
0.38 0.37 0.36 0.34 0.31 0.29 0.29 0.27 0.26 0.25 0.23 0.22 0.20 0.19 0.19 0.20 0.21 0.19 0.18 0.23 0.24 0.23 0.24 0.25 0.27 0.29 0.31 0.31 0.31 0.31 0.31 0.29 0.27 0.27 0.27 0.28 0.29 0.29 0.29 0.28 0.28 0.29 0.27 0.26
0.36 0.35 0.32 0.32 0.29 0.27 0.24 0.24 0.24 0.24 0.23 0.22 0.22 0.22 0.22 0.20 0.21 0.23 0.22 0.21 0.21 0.21 0.22 0.24 0.25 0.27 0.29 0.30 0.30 0.30 0.29 0.27 0.26 0.25 0.25 0.26 0.26 0.26 0.26 0.26 0.25 0.25 0.24 0.23
0.34 0.33 0.31 0.28 0.26 0.24 0.24 0.23 0.22 0.22 0.21 0.21 0.20 0.20 0.19 0.19 0.17 0.17 0.17 0.17 0.18 0.18 0.19 0.23 0.23 0.24 0.26 0.26 0.25 0.25 0.26 0.25 0.24 0.23 0.23 0.23 0.23 0.24 0.24 0.24 0.23 0.22 0.21 0.20
0.33 0.30 0.28 0.26 0.25 0.24 0.23 0.22 0.21 0.20 0.19 0.17 0.17 0.16 0.15 0.16 0.16 0.15 0.16 0.15 0.16 0.16 0.17 0.18 0.19 0.20 0.21 0.22 0.22 0.22 0.23 0.22 0.22 0.21 0.21 0.21 0.21 0.22 0.22 0.22 0.21 0.20 0.19 0.19
0.28 0.27 0.27 0.26 0.25 0.24 0.22 0.20 0.18 0.17 0.17 0.15 0.13 0.13 0.14 0.14 0.14 0.14 0.14 0.15 0.15 0.15 0.16 0.17 0.17 0.18 0.19 0.19 0.20 0.20 0.20 0.20 0.20 0.19 0.19 0.19 0.19 0.20 0.20 0.20 0.19 0.19 0.19 0.18

GFSNGP_prec_pwat_015.txt.gz
Precipitable_Water
0.32 0.36 0.35 0.29 0.27 0.26 0.22 0.20 0.17 0.18 0.16 0.17 0.21 0.23 0.26 0.31 0.34 0.39 0.46 0.50 0.55 0.56 0.57 0.60 0.60 0.59 0.61 0.63 0.67 0.60 0.51 0.46 0.44 0.45 0.45 0.44 0.43 0.42 0.39 0.36 0.34 0.34 0.35 0.36
0.25 0.30 0.31 0.27 0.26 0.23 0.23 0.22 0.20 0.19 0.19 0.22 0.27 0.29 0.28 0.31 0.34 0.35 0.42 0.48 0.53 0.54 0.56 0.56 0.56 0.55 0.59 0.64 0.60 0.59 0.49 0.47 0.46 0.45 0.44 0.41 0.39 0.38 0.35 0.34 0.34 0.34 0.34 0.35
0.21 0.28 0.26 0.20 0.21 0.22 0.22 0.24 0.22 0.18 0.22 0.30 0.32 0.30 0.29 0.32 0.37 0.36 0.41 0.46 0.49 0.52 0.55 0.55 0.55 0.55 0.59 0.59 0.59 0.53 0.51 0.49 0.46 0.47 0.43 0.38 0.36 0.32 0.31 0.33 0.34 0.33 0.33 0.32
0.21 0.21 0.13 0.19 0.26 0.24 0.23 0.23 0.26 0.26 0.26 0.28 0.31 0.34 0.36 0.38 0.38 0.40 0.41 0.45 0.49 0.52 0.55 0.59 0.58 0.55 0.60 0.59 0.54 0.55 0.47 0.48 0.49 0.44 0.35 0.32 0.30 0.29 0.30 0.33 0.32 0.32 0.32 0.32
0.20 0.18 0.19 0.20 0.19 0.19 0.19 0.18 0.24 0.27 0.26 0.29 0.35 0.33 0.33 0.45 0.45 0.44 0.46 0.49 0.52 0.56 0.60 0.63 0.59 0.58 0.57 0.56 0.54 0.49 0.54 0.47 0.42 0.36 0.32 0.29 0.28 0.28 0.30 0.31 0.32 0.32 0.32 0.31
0.22 0.18 0.14 0.25 0.27 0.30 0.28 0.17 0.30 0.29 0.28 0.29 0.32 0.27 0.32 0.49 0.48 0.46 0.50 0.55 0.57 0.63 0.65 0.64 0.60 0.58 0.56 0.53 0.57 0.52 0.47 0.45 0.39 0.34 0.30 0.27 0.30 0.30 0.30 0.32 0.32 0.31 0.30 0.29
0.25 0.21 0.23 0.28 0.28 0.30 0.17 0.24 0.35 0.32 0.33 0.35 0.32 0.37 0.49 0.50 0.47 0.54 0.58 0.62 0.66 0.69 0.66 0.63 0.57 0.56 0.58 0.55 0.53 0.46 0.47 0.40 0.35 0.31 0.30 0.32 0.29 0.29 0.30 0.31 0.32 0.32 0.30 0.29
0.26 0.21 0.15 0.29 0.29 0.23 0.38 0.36 0.38 0.38 0.40 0.43 0.44 0.47 0.52 0.53 0.52 0.57 0.61 0.66 0.68 0.64 0.58 0.55 0.58 0.61 0.58 0.55 0.49 0.50 0.43 0.36 0.32 0.33 0.33 0.31 0.30 0.30 0.32 0.31 0.31 0.30 0.30 0.31
0.26 0.28 0.38 0.33 0.32 0.39 0.39 0.36 0.38 0.41 0.43 0.47 0.47 0.49 0.54 0.58 0.58 0.59 0.64 0.61 0.59 0.55 0.55 0.60 0.64 0.62 0.53 0.53 0.49 0.41 0.37 0.34 0.33 0.33 0.32 0.32 0.30 0.29 0.29 0.30 0.30 0.29 0.30 0.31
0.26 0.31 0.34 0.36 0.37 0.40 0.41 0.42 0.44 0.47 0.50 0.54 0.56 0.62 0.62 0.64 0.60 0.57 0.54 0.50 0.53 0.57 0.59 0.60 0.63 0.59 0.49 0.46 0.45 0.39 0.35 0.33 0.32 0.32 0.31 0.29 0.28 0.29 0.30 0.29 0.28 0.29 0.30 0.29
0.31 0.31 0.35 0.38 0.43 0.45 0.46 0.52 0.55 0.61 0.65 0.66 0.64 0.63 0.65 0.64 0.57 0.54 0.51 0.58 0.61 0.61 0.61 0.58 0.55 0.49 0.46 0.45 0.41 0.35 0.33 0.32 0.32 0.31 0.30 0.29 0.28 0.28 0.29 0.31 0.31 0.30 0.31 0.31
0.29 0.40 0.37 0.40 0.49 0.52 0.53 0.58 0.62 0.63 0.64 0.62 0.63 0.63 0.63 0.56 0.56 0.61 0.61 0.62 0.61 0.59 0.54 0.50 0.49 0.46 0.43 0.41 0.37 0.34 0.32 0.31 0.31 0.30 0.30 0.30 0.28 0.27 0.30 0.31 0.32 0.32 0.31 0.32
0.37 0.46 0.46 0.50 0.56 0.57 0.55 0.56 0.59 0.58 0.59 0.57 0.59 0.61 0.63 0.62 0.64 0.63 0.61 0.59 0.56 0.52 0.49 0.47 0.44 0.41 0.39 0.36 0.34 0.31 0.29 0.28 0.29 0.30 0.30 0.29 0.29 0.28 0.25 0.29 0.32 0.33 0.32 0.31
0.53 0.53 0.51 0.52 0.52 0.56 0.58 0.61 0.63 0.64 0.65 0.64 0.63 0.63 0.61 0.60 0.59 0.56 0.54 0.53 0.51 0.47 0.44 0.41 0.38 0.34 0.34 0.32 0.31 0.29 0.28 0.29 0.29 0.30 0.30 0.30 0.30 0.30 0.29 0.27 0.27 0.29 0.34 0.34
0.52 0.55 0.54 0.56 0.58 0.60 0.63 0.65 0.63 0.62 0.61 0.60 0.60 0.56 0.54 0.50 0.48 0.48 0.48 0.46 0.43 0.39 0.35 0.33 0.30 0.28 0.30 0.29 0.29 0.28 0.29 0.29 0.30 0.31 0.31 0.29 0.29 0.28 0.30 0.29 0.29 0.29 0.31 0.33
0.54 0.55 0.56 0.57 0.59 0.61 0.63 0.62 0.58 0.56 0.55 0.52 0.49 0.48 0.47 0.46 0.44 0.40 0.37 0.35 0.31 0.28 0.29 0.29 0.27 0.27 0.29 0.28 0.28 0.29 0.30 0.31 0.30 0.30 0.30 0.30 0.29 0.29 0.29 0.30 0.29 0.29 0.30 0.30
0.52 0.52 0.56 0.57 0.59 0.59 0.57 0.55 0.51 0.50 0.49 0.48 0.47 0.41 0.35 0.33 0.31 0.30 0.30 0.30 0.29 0.27 0.26 0.26 0.24 0.27 0.28 0.29 0.29 0.30 0.32 0.33 0.33 0.33 0.32 0.32 0.31 0.30 0.29 0.29 0.29 0.28 0.29 0.34
0.62 0.63 0.63 0.59 0.54 0.51 0.49 0.50 0.47 0.43 0.38 0.35 0.32 0.31 0.29 0.26 0.24 0.25 0.26 0.27 0.26 0.25 0.25 0.28 0.29 0.29 0.30 0.31 0.32 0.33 0.34 0.34 0.34 0.34 0.33 0.32 0.32 0.31 0.30 0.29 0.29 0.28 0.29 0.33
0.59 0.56 0.55 0.53 0.52 0.48 0.43 0.39 0.36 0.35 0.33 0.32 0.29 0.26 0.26 0.27 0.27 0.27 0.27 0.25 0.23 0.24 0.28 0.32 0.31 0.30 0.29 0.30 0.31 0.33 0.34 0.33 0.33 0.33 0.32 0.30 0.29 0.28 0.29 0.29 0.28 0.29 0.30 0.32
0.53 0.51 0.48 0.45 0.42 0.38 0.34 0.34 0.34 0.32 0.31 0.28 0.28 0.26 0.25 0.26 0.26 0.26 0.25 0.23 0.26 0.30 0.32 0.31 0.30 0.30 0.31 0.32 0.32 0.32 0.32 0.30 0.30 0.31 0.30 0.29 0.27 0.27 0.29 0.29 0.30 0.30 0.31 0.32
0.46 0.43 0.39 0.36 0.34 0.35 0.34 0.33 0.30 0.28 0.29 0.28 0.25 0.23 0.22 0.21 0.21 0.20 0.19 0.18 0.22 0.28 0.26 0.24 0.23 0.23 0.25 0.27 0.30 0.31 0.34 0.33 0.32 0.31 0.30 0.28 0.28 0.27 0.29 0.30 0.30 0.31 0.31 0.32
0.44 0.38 0.36 0.37 0.35 0.32 0.31 0.29 0.27 0.26 0.24 0.23 0.22 0.22 0.20 0.21 0.21 0.22 0.23 0.22 0.25 0.23 0.21 0.21 0.21 0.22 0.22 0.23 0.24 0.26 0.28 0.30 0.30 0.32 0.30 0.29 0.27 0.25 0.26 0.29 0.29 0.30 0.30 0.31
0.41 0.38 0.37 0.35 0.32 0.29 0.28 0.26 0.26 0.26 0.24 0.23 0.23 0.22 0.22 0.22 0.22 0.20 0.18 0.23 0.20 0.20 0.18 0.19 0.20 0.19 0.21 0.23 0.25 0.26 0.28 0.28 0.30 0.30 0.28 0.27 0.26 0.25 0.25 0.26 0.27 0.27 0.28 0.28
0.38 0.36 0.34 0.34 0.32 0.27 0.24 0.25 0.26 0.26 0.25 0.24 0.24 0.23 0.21 0.19 0.19 0.20 0.20 0.18 0.17 0.15 0.16 0.17 0.16 0.17 0.18 0.20 0.21 0.22 0.24 0.25 0.25 0.25 0.25 0.25 0.24 0.24 0.23 0.23 0.24 0.25 0.25 0.26
0.36 0.35 0.34 0.31 0.27 0.25 0.25 0.26 0.26 0.25 0.24 0.22 0.22 0.21 0.20 0.20 0.17 0.17 0.17 0.16 0.15 0.15 0.15 0.16 0.16 0.16 0.17 0.18 0.18 0.19 0.20 0.21 0.21 0.22 0.21 0.22 0.22 0.21 0.21 0.21 0.22 0.22 0.23 0.23
0.35 0.33 0.31 0.28 0.27 0.27 0.27 0.25 0.23 0.23 0.21 0.20 0.19 0.19 0.19 0.18 0.17 0.16 0.15 0.15 0.14 0.14 0.14 0.15 0.15 0.15 0.15 0.16 0.17 0.17 0.18 0.18 0.19 0.19 0.19 0.19 0.19 0.19 0.19 0.19 0.19 0.20 0.21 0.21
0.32 0.31 0.29 0.29 0.29 0.27 0.26 0.23 0.22 0.20 0.20 0.19 0.17 0.18 0.17 0.15 0.14 0.14 0.14 0.14 0.13 0.13 0.13 0.14 0.14 0.14 0.14 0.14 0.15 0.16 0.16 0.16 0.17 0.17 0.17 0.17 0.17 0.17 0.16 0.16 0.17 0.17 0.18 0.19